Temp
50 51 50 51 52 52 53 52 53 53 54 55 55 56 56 57 57 56 55 54 54 54 54 54 54 53 53 54 54 54 54 53 53 53 52 52 52 52 51 52 54 55
49 49 50 50 50 50 51 51 51 51 52 53 54 55 56 56 56 56 54 53 53 53 53 53 53 53 53 52 51 51 52 52 51 52 51 50 51 51 51 51 52 53
49 48 48 47 47 47 48 50 50 51 51 51 52 53 53 54 54 55 54 53 53 53 52 52 52 52 51 50 50 50 50 50 50 51 50 49 50 50 51 51 51 51
48 49 48 48 48 47 48 48 48 49 49 49 50 51 52 52 53 52 52 51 51 50 50 50 50 50 50 49 49 49 49 50 50 50 49 49 49 50 50 50 50 50
48 48 48 48 48 48 48 47 47 47 47 47 48 49 49 49 49 50 50 50 49 49 49 49 49 49 49 49 48 48 48 49 49 49 49 49 49 49 49 49 49 48
47 48 48 47 47 47 47 47 47 47 47 47 47 48 47 47 47 47 48 48 49 49 48 49 48 48 48 48 48 48 48 48 48 48 48 48 49 50 48 48 48 48
45 45 45 46 46 46 46 46 46 47 46 46 47 47 47 47 47 47 47 47 47 47 47 47 47 47 48 47 47 47 47 47 47 48 47 47 48 48 49 48 48 48
44 45 45 45 44 45 45 45 45 45 46 46 45 46 47 46 46 47 47 47 47 47 47 47 46 46 47 47 46 46 46 46 45 46 46 46 47 46 48 47 47 47
43 43 43 43 43 43 43 44 44 45 45 44 44 45 46 46 46 46 46 46 46 47 47 47 47 47 47 46 46 46 45 45 45 45 45 45 45 46 47 47 46 46
45 44 43 42 41 42 42 42 42 42 43 43 44 44 44 45 46 46 46 46 45 46 46 46 46 46 47 47 46 45 45 45 45 45 45 45 45 45 46 46 46 45
44 44 44 43 42 42 41 41 41 41 41 41 42 42 42 43 44 45 44 44 44 44 45 45 45 46 46 46 46 46 45 45 45 45 45 45 45 45 44 46 45 45
44 44 43 43 43 43 42 42 41 41 41 40 40 40 41 42 42 43 43 42 43 44 44 44 45 45 45 45 45 46 45 45 45 45 45 45 45 45 45 45 45 45
43 43 43 42 42 42 43 42 42 41 40 40 40 39 39 39 40 40 41 41 41 42 42 42 42 43 43 44 44 45 45 44 44 44 44 44 44 45 45 45 45 45
43 43 43 42 42 42 41 42 41 41 41 41 40 39 39 39 39 38 39 40 41 41 41 41 41 41 41 42 42 43 43 43 43 42 43 43 43 44 44 44 44 44
42 42 42 42 41 40 40 40 40 40 40 39 39 39 39 40 39 39 38 38 39 40 40 41 40 39 39 40 40 41 41 41 41 41 41 42 42 42 43 43 43 43
40 41 40 40 39 38 38 39 39 38 38 37 37 38 38 39 39 39 39 38 38 38 39 38 38 39 38 39 40 39 39 39 39 39 39 40 40 40 41 42 42 43
39 39 39 37 37 37 35 36 36 36 35 34 35 35 36 37 38 38 38 39 39 38 38 38 38 38 39 40 41 41 40 38 37 37 37 38 38 38 39 40 41 42
37 37 36 35 35 33 33 33 34 34 33 33 33 34 34 34 35 36 37 38 38 38 38 38 39 39 40 41 41 41 40 38 37 37 36 37 38 37 38 39 39 41
37 35 34 33 32 32 31 31 31 32 32 31 31 32 32 32 33 34 35 36 37 37 37 38 38 39 40 40 40 40 41 40 38 37 37 37 38 38 38 38 38 38
36 33 32 32 32 31 30 29 30 30 31 31 31 30 30 30 30 31 33 35 36 36 36 37 37 38 39 39 39 39 40 39 37 37 37 37 38 38 38 38 38 38
33 33 32 32 31 30 29 28 28 28 29 29 29 28 28 27 28 29 30 32 33 34 35 34 36 38 38 38 39 39 39 39 36 36 36 36 37 38 38 38 39 39
33 31 31 31 30 29 27 27 27 27 27 28 27 27 27 27 27 28 28 28 30 31 32 33 35 37 37 38 38 38 38 36 35 35 35 35 36 37 38 38 39 39
32 30 29 29 29 27 26 25 25 25 26 27 24 24 24 24 24 25 27 28 28 30 30 30 32 35 36 37 37 37 36 35 34 35 35 35 35 37 37 38 38 38
30 29 28 27 26 25 24 24 25 25 25 25 23 21 21 22 23 24 25 26 27 27 29 29 30 33 35 36 36 36 36 33 34 34 33 34 35 36 37 37 37 36
29 28 26 26 25 24 23 22 22 22 23 23 22 21 20 21 22 21 22 23 24 25 28 27 28 30 34 35 35 36 35 33 33 33 32 33 34 34 36 36 37 37
26 24 24 23 22 22 21 21 21 21 20 20 19 20 19 19 19 19 19 20 21 22 23 24 25 26 29 33 35 35 36 34 33 32 31 31 32 33 33 34 36 37
MSLP
1014.29 1014.17 1013.97 1013.65 1013.45 1013.33 1013.25 1013.21 1013.13 1013.13 1013.09 1013.01 1012.89 1012.65 1012.61 1012.57 1012.69 1012.69 1012.53 1012.49 1012.49 1012.49 1012.53 1012.57 1012.65 1012.69 1012.73 1012.85 1012.89 1013.01 1013.01 1013.17 1013.45 1013.61 1013.73 1013.89 1013.89 1014.01 1014.05 1014.05 1014.09 1013.97
1014.53 1014.49 1014.33 1014.09 1013.89 1013.77 1013.73 1013.61 1013.53 1013.49 1013.45 1013.37 1013.17 1012.97 1012.81 1012.85 1012.81 1012.81 1012.73 1012.61 1012.49 1012.41 1012.37 1012.37 1012.41 1012.49 1012.57 1012.65 1012.73 1012.85 1012.81 1012.93 1013.09 1013.37 1013.57 1013.65 1013.65 1013.85 1013.77 1013.85 1014.01 1013.93
1014.73 1014.61 1014.45 1014.25 1014.09 1014.05 1013.93 1013.85 1013.77 1013.69 1013.57 1013.41 1013.21 1013.13 1013.17 1013.25 1013.13 1012.97 1012.81 1012.61 1012.53 1012.41 1012.33 1012.25 1012.25 1012.29 1012.33 1012.45 1012.57 1012.65 1012.69 1012.73 1012.85 1013.01 1013.29 1013.29 1013.49 1013.61 1013.53 1013.81 1013.81 1013.85
1015.01 1014.93 1014.81 1014.49 1014.17 1014.01 1013.93 1013.89 1013.77 1013.65 1013.57 1013.45 1013.41 1013.45 1013.57 1013.49 1013.33 1013.17 1013.01 1012.81 1012.57 1012.45 1012.41 1012.33 1012.21 1012.17 1012.21 1012.25 1012.41 1012.45 1012.45 1012.53 1012.57 1012.85 1012.97 1013.01 1013.13 1013.25 1013.33 1013.53 1013.57 1013.73
1015.45 1015.29 1015.13 1014.73 1014.29 1014.05 1013.89 1013.81 1013.81 1013.77 1013.81 1013.81 1013.77 1013.81 1013.69 1013.53 1013.37 1013.21 1013.05 1012.89 1012.73 1012.53 1012.33 1012.25 1012.21 1012.13 1012.13 1012.17 1012.21 1012.25 1012.21 1012.33 1012.45 1012.65 1012.69 1012.69 1012.73 1012.93 1012.93 1013.21 1013.21 1013.33
1015.89 1015.81 1015.49 1014.97 1014.49 1014.21 1014.05 1014.01 1013.97 1013.93 1013.89 1013.89 1013.85 1013.81 1013.69 1013.49 1013.33 1013.17 1013.05 1012.89 1012.69 1012.61 1012.45 1012.25 1012.09 1011.97 1011.97 1012.01 1012.09 1012.05 1012.01 1012.01 1012.01 1012.25 1012.33 1012.37 1012.45 1012.49 1012.65 1012.81 1012.81 1012.89
1015.85 1015.61 1015.33 1014.89 1014.61 1014.57 1014.65 1014.65 1014.61 1014.53 1014.49 1014.41 1014.09 1013.89 1013.61 1013.41 1013.21 1013.05 1012.93 1012.77 1012.69 1012.57 1012.41 1012.25 1012.05 1011.93 1011.85 1011.81 1011.85 1011.85 1011.89 1011.89 1011.89 1011.89 1011.85 1011.97 1012.09 1012.09 1012.29 1012.53 1012.49 1012.57
1015.73 1015.49 1015.29 1015.09 1015.01 1014.89 1014.97 1014.97 1014.97 1014.85 1014.73 1014.57 1014.29 1013.97 1013.65 1013.37 1013.13 1013.01 1012.89 1012.77 1012.61 1012.45 1012.29 1012.13 1011.93 1011.77 1011.73 1011.69 1011.65 1011.61 1011.61 1011.73 1011.85 1011.85 1011.73 1011.61 1011.61 1011.61 1011.73 1012.01 1012.17 1012.25
1015.73 1015.57 1015.49 1015.41 1015.45 1015.33 1015.37 1015.29 1015.17 1014.97 1014.77 1014.65 1014.37 1014.01 1013.73 1013.45 1013.17 1012.97 1012.81 1012.69 1012.61 1012.41 1012.21 1012.01 1011.77 1011.61 1011.49 1011.45 1011.49 1011.49 1011.41 1011.45 1011.49 1011.57 1011.57 1011.53 1011.45 1011.25 1011.29 1011.49 1011.65 1011.61
1015.81 1015.69 1015.65 1015.65 1015.65 1015.61 1015.61 1015.53 1015.41 1015.17 1014.93 1014.77 1014.53 1014.29 1014.05 1013.77 1013.49 1013.21 1012.89 1012.69 1012.53 1012.41 1012.25 1012.01 1011.77 1011.53 1011.37 1011.29 1011.25 1011.29 1011.25 1011.17 1011.21 1011.25 1011.21 1011.21 1011.17 1011.13 1011.13 1011.21 1011.13 1011.21
1015.97 1015.85 1015.77 1015.69 1015.69 1015.61 1015.61 1015.49 1015.37 1015.21 1015.01 1014.85 1014.61 1014.45 1014.25 1014.01 1013.73 1013.45 1013.21 1012.93 1012.65 1012.41 1012.21 1012.01 1011.77 1011.57 1011.37 1011.21 1011.09 1011.01 1010.97 1010.93 1010.93 1010.89 1010.85 1010.85 1010.81 1010.77 1010.77 1010.81 1010.77 1010.65
1016.21 1016.05 1015.93 1015.81 1015.69 1015.61 1015.53 1015.45 1015.33 1015.21 1015.09 1014.97 1014.81 1014.61 1014.37 1014.13 1013.93 1013.69 1013.45 1013.17 1012.93 1012.57 1012.29 1012.01 1011.73 1011.49 1011.33 1011.17 1011.01 1010.85 1010.73 1010.65 1010.61 1010.57 1010.45 1010.41 1010.41 1010.41 1010.45 1010.41 1010.33 1010.25
1016.61 1016.33 1016.13 1015.97 1015.81 1015.69 1015.49 1015.37 1015.33 1015.21 1015.09 1015.01 1014.81 1014.73 1014.49 1014.25 1014.01 1013.77 1013.49 1013.25 1012.93 1012.61 1012.33 1012.01 1011.73 1011.53 1011.29 1011.09 1010.93 1010.81 1010.65 1010.49 1010.37 1010.29 1010.17 1010.09 1010.01 1010.01 1010.05 1010.01 1009.93 1009.85
1016.81 1016.61 1016.37 1016.17 1015.97 1015.81 1015.65 1015.45 1015.29 1015.17 1015.09 1014.93 1014.73 1014.53 1014.29 1014.09 1013.85 1013.61 1013.37 1013.13 1012.85 1012.53 1012.21 1011.93 1011.69 1011.45 1011.25 1011.05 1010.89 1010.77 1010.65 1010.49 1010.33 1010.13 1009.93 1009.77 1009.69 1009.65 1009.61 1009.53 1009.49 1009.41
1016.81 1016.69 1016.53 1016.29 1016.21 1016.05 1015.85 1015.61 1015.37 1015.21 1015.01 1014.81 1014.69 1014.49 1014.17 1013.81 1013.53 1013.37 1013.17 1012.89 1012.61 1012.33 1012.05 1011.73 1011.53 1011.33 1011.09 1010.89 1010.77 1010.69 1010.61 1010.41 1010.21 1010.05 1009.85 1009.61 1009.41 1009.25 1009.17 1009.09 1009.01 1008.89
1016.85 1016.65 1016.49 1016.37 1016.37 1016.21 1016.05 1015.81 1015.49 1015.29 1015.09 1014.93 1014.69 1014.33 1014.01 1013.77 1013.49 1013.09 1012.81 1012.53 1012.25 1012.05 1011.85 1011.61 1011.37 1011.05 1010.81 1010.65 1010.53 1010.45 1010.41 1010.33 1010.17 1010.01 1009.81 1009.57 1009.25 1008.97 1008.77 1008.65 1008.49 1008.49
1017.01 1016.73 1016.49 1016.41 1016.29 1016.21 1016.09 1015.89 1015.65 1015.37 1015.17 1014.89 1014.61 1014.33 1014.05 1013.69 1013.29 1012.93 1012.65 1012.21 1011.89 1011.65 1011.49 1011.25 1011.05 1010.77 1010.53 1010.29 1010.13 1010.01 1010.01 1009.97 1009.89 1009.69 1009.61 1009.41 1009.17 1008.85 1008.45 1008.25 1008.09 1007.93
1016.93 1016.73 1016.61 1016.45 1016.25 1016.21 1016.01 1015.89 1015.61 1015.33 1015.17 1015.09 1014.81 1014.37 1013.97 1013.65 1013.37 1012.93 1012.41 1012.05 1011.69 1011.33 1011.01 1010.77 1010.53 1010.37 1010.21 1010.01 1009.77 1009.57 1009.53 1009.49 1009.41 1009.29 1009.13 1009.01 1008.81 1008.61 1008.29 1008.01 1007.73 1007.49
1016.81 1016.61 1016.45 1016.33 1016.25 1016.09 1016.05 1015.93 1015.69 1015.37 1015.05 1014.89 1014.69 1014.41 1014.21 1013.89 1013.41 1012.97 1012.49 1011.97 1011.45 1011.01 1010.69 1010.37 1010.01 1009.81 1009.73 1009.57 1009.37 1009.21 1009.01 1008.93 1008.81 1008.69 1008.61 1008.45 1008.29 1008.13 1007.93 1007.69 1007.45 1007.21
1016.69 1016.53 1016.29 1016.05 1015.85 1015.89 1015.85 1015.73 1015.53 1015.29 1015.01 1014.73 1014.49 1014.33 1014.17 1013.85 1013.45 1013.09 1012.49 1011.81 1011.33 1010.93 1010.53 1010.13 1009.77 1009.41 1009.29 1009.17 1009.01 1008.89 1008.69 1008.57 1008.33 1008.13 1008.01 1007.89 1007.69 1007.57 1007.41 1007.21 1007.01 1006.85
1016.41 1016.17 1015.93 1015.61 1015.45 1015.49 1015.49 1015.41 1015.29 1015.05 1014.85 1014.65 1014.45 1014.25 1014.01 1013.73 1013.29 1012.77 1012.25 1011.77 1011.21 1010.81 1010.45 1009.93 1009.37 1009.05 1008.89 1008.65 1008.49 1008.37 1008.29 1008.17 1007.97 1007.65 1007.41 1007.21 1007.01 1006.89 1006.77 1006.61 1006.49 1006.37
1015.97 1015.73 1015.53 1015.33 1015.21 1015.13 1015.17 1015.09 1014.97 1014.77 1014.49 1014.29 1014.21 1014.05 1013.77 1013.57 1013.17 1012.77 1012.21 1011.69 1011.17 1010.69 1010.21 1009.57 1008.97 1008.69 1008.49 1008.33 1008.09 1007.89 1007.77 1007.69 1007.49 1007.21 1006.89 1006.61 1006.33 1006.25 1006.17 1006.01 1005.89 1005.81
1015.69 1015.49 1015.29 1015.09 1015.05 1015.01 1014.89 1014.81 1014.77 1014.49 1014.25 1014.01 1013.97 1013.89 1013.57 1013.21 1012.85 1012.57 1012.01 1011.45 1010.89 1010.41 1010.01 1009.29 1008.61 1008.17 1008.01 1007.85 1007.69 1007.53 1007.45 1007.29 1007.05 1006.77 1006.41 1006.09 1005.69 1005.45 1005.45 1005.37 1005.25 1005.17
1015.45 1015.37 1015.17 1014.97 1014.93 1014.97 1014.81 1014.73 1014.61 1014.33 1014.05 1013.81 1013.81 1013.61 1013.33 1012.97 1012.57 1012.13 1011.61 1011.17 1010.65 1010.01 1009.61 1009.13 1008.33 1007.69 1007.45 1007.25 1007.09 1006.97 1007.01 1006.89 1006.61 1006.29 1005.93 1005.53 1005.09 1004.81 1004.73 1004.65 1004.45 1004.45
1015.49 1015.37 1015.29 1015.09 1014.85 1014.81 1014.89 1014.77 1014.57 1014.25 1013.89 1013.77 1013.65 1013.45 1013.01 1012.69 1012.25 1011.77 1011.17 1010.69 1010.33 1009.85 1009.33 1008.97 1008.25 1007.49 1007.01 1006.69 1006.37 1006.17 1006.25 1006.25 1006.09 1005.77 1005.49 1005.05 1004.69 1004.25 1004.05 1003.93 1003.65 1003.65
1015.73 1015.69 1015.49 1015.33 1015.01 1014.81 1014.81 1014.69 1014.37 1014.05 1013.93 1013.69 1013.41 1013.25 1012.81 1012.41 1012.01 1011.49 1011.01 1010.33 1009.89 1009.53 1009.09 1008.65 1008.21 1007.41 1006.73 1006.17 1005.77 1005.45 1005.29 1005.37 1005.33 1005.21 1004.89 1004.45 1004.13 1003.93 1003.61 1003.29 1003.09 1002.81
Wind_Speed
8 8 7 7 7 7 7 8 8 8 8 8 8 8 8 8 7 7 7 8 8 9 9 9 9 9 8 10 10 10 10 11 10 11 12 13 13 14 14 15 14 12
9 8 7 6 6 6 7 7 7 7 8 8 8 9 9 8 8 7 6 7 8 9 9 9 9 9 9 9 9 10 10 10 12 9 11 13 13 13 15 15 15 14
10 9 9 8 7 7 7 7 6 7 7 8 8 8 8 8 9 8 7 7 7 8 9 9 9 9 9 8 9 9 10 11 11 10 11 13 12 13 13 13 13 15
10 9 8 7 8 7 6 6 6 7 7 7 8 8 8 8 8 9 8 8 6 6 6 7 8 8 8 8 8 9 10 11 11 9 11 11 12 12 13 12 13 13
9 9 9 8 8 8 7 7 7 7 6 6 6 7 7 7 7 7 7 7 6 7 7 7 7 8 8 8 8 9 9 9 10 10 11 12 12 12 12 12 13 15
6 7 7 8 8 9 9 9 9 9 8 7 7 6 6 6 6 6 7 8 7 7 7 7 7 8 8 8 8 9 9 9 9 11 12 13 11 11 10 12 14 15
7 6 8 8 9 8 8 7 7 7 8 7 7 7 7 7 7 7 7 7 7 7 7 7 7 7 7 8 9 9 9 10 10 11 13 12 12 13 11 12 14 14
7 7 8 8 9 8 8 7 7 7 7 8 7 7 7 7 7 6 7 7 7 7 7 7 8 8 8 7 8 9 10 8 9 11 12 13 12 14 13 10 12 15
6 6 7 7 7 7 8 8 8 8 7 8 8 8 9 8 8 8 8 7 8 8 8 8 7 8 7 8 9 9 10 9 9 11 12 12 13 14 14 12 13 15
8 6 5 6 6 6 7 7 6 6 7 7 8 8 9 8 9 9 8 8 8 8 8 8 8 8 8 8 9 9 10 11 10 11 12 13 13 13 13 13 14 15
9 8 8 8 7 6 6 6 6 7 7 8 8 8 8 9 8 8 8 8 7 8 9 9 9 9 9 9 8 8 10 11 11 11 11 13 14 14 13 14 14 15
9 9 9 8 8 7 7 7 6 6 6 6 7 8 8 7 8 8 8 9 9 9 9 10 9 9 9 10 10 9 9 10 10 11 12 12 12 13 13 13 14 15
9 9 9 9 9 8 7 7 8 8 7 7 6 7 7 7 7 7 7 8 9 8 8 9 9 9 9 9 9 10 11 11 10 11 12 11 12 12 12 14 15 15
8 8 8 8 8 9 9 9 8 7 8 8 8 7 6 7 7 8 8 7 8 8 8 8 8 8 9 9 9 10 10 10 11 11 12 13 13 13 13 14 15 15
8 8 7 7 8 8 9 9 9 9 9 8 8 9 8 8 7 7 8 8 8 8 8 7 7 7 6 7 8 10 10 10 11 11 12 12 13 13 14 14 14 14
10 9 9 8 8 8 9 10 10 9 9 10 12 10 9 9 10 10 9 8 8 8 7 6 6 6 8 14 13 10 9 9 10 11 11 12 13 13 14 14 14 14
9 9 9 9 9 8 8 8 11 9 9 9 9 9 12 12 11 10 10 9 9 8 8 7 6 6 11 12 14 17 13 10 10 11 11 12 13 14 14 14 14 14
10 10 11 9 7 7 8 8 9 9 9 10 11 11 10 10 13 13 12 10 9 10 9 8 7 9 12 13 14 15 14 11 9 10 11 12 13 14 13 13 14 14
11 10 9 9 7 7 7 8 9 11 10 10 10 9 11 13 13 13 14 14 12 11 10 10 10 10 12 15 15 15 16 14 9 10 11 12 13 14 14 14 13 13
11 10 11 11 9 8 8 10 10 10 10 9 9 9 10 10 11 14 14 13 12 12 12 11 11 13 14 15 16 17 17 15 9 11 11 12 14 14 14 14 14 14
10 10 11 11 10 9 9 11 12 11 11 8 7 9 10 11 12 13 12 13 12 12 12 13 12 17 18 18 17 17 17 15 9 10 10 11 13 14 15 15 16 14
10 11 11 11 10 7 9 12 13 13 13 9 7 8 9 9 11 12 13 14 14 14 13 14 14 18 17 18 18 18 18 10 9 10 10 11 12 13 14 14 14 15
12 11 12 11 10 10 12 13 13 15 13 7 9 10 11 11 12 13 13 13 14 14 14 14 14 17 19 18 18 19 13 8 9 9 10 12 13 13 13 13 14 14
10 11 12 12 12 13 13 12 12 12 13 8 9 12 13 14 12 13 14 13 14 14 14 14 16 18 22 20 21 20 15 10 9 10 11 12 12 13 12 12 15 21
11 11 13 13 13 13 13 15 15 14 12 9 10 11 12 13 12 13 15 14 14 15 19 19 16 18 23 24 25 22 16 10 10 9 11 12 12 12 12 12 13 15
11 13 15 15 15 15 14 14 13 12 12 11 11 11 12 12 12 14 17 16 15 15 15 16 17 17 20 27 25 25 22 13 9 9 11 13 12 11 12 12 12 13
Wind_Direction
19 7 3 359 355 352 341 337 331 325 319 314 307 304 300 296 276 245 222 221 222 225 225 224 224 223 219 221 216 220 218 218 217 215 219 217 221 219 221 220 219 217
26 21 15 7 3 358 347 338 330 323 316 312 309 308 306 302 294 267 239 228 229 228 227 226 223 223 218 217 214 220 227 223 223 216 221 221 224 222 225 222 222 224
20 18 19 18 11 1 351 344 335 328 321 318 314 311 307 306 298 284 261 241 237 237 233 229 228 225 222 221 220 224 226 225 226 219 220 223 222 224 227 224 228 225
15 15 13 14 15 10 3 354 349 341 332 328 325 318 308 299 292 288 283 265 249 243 242 239 232 229 226 223 221 225 224 228 230 222 225 228 224 224 227 225 229 228
8 7 5 6 7 11 11 7 4 353 339 328 316 308 302 297 292 286 279 270 258 249 242 237 235 233 228 226 220 226 225 230 227 228 233 232 228 222 226 223 226 227
12 8 3 7 7 11 10 7 2 355 348 343 329 315 306 301 295 289 286 282 272 260 252 244 238 232 227 227 226 228 229 229 225 220 230 233 233 226 226 225 228 228
8 3 5 8 8 14 12 4 360 354 350 339 326 324 320 314 306 302 296 286 276 267 259 252 246 242 232 226 227 231 231 232 231 225 226 230 232 233 226 227 231 231
11 8 8 5 6 3 6 357 355 352 348 339 339 327 330 320 317 311 305 299 290 280 270 256 250 245 239 234 234 232 230 228 233 235 235 233 229 232 227 223 227 233
5 9 9 10 5 359 360 352 350 347 346 343 342 340 338 337 324 319 311 304 298 293 285 277 266 257 246 238 237 236 236 233 229 232 235 237 235 234 231 227 228 232
3 1 3 4 4 356 354 348 340 339 339 340 338 337 338 335 333 325 319 310 304 297 290 284 278 268 260 250 241 239 241 241 237 233 234 237 239 239 236 233 233 236
350 355 357 355 351 344 343 340 339 341 339 336 337 333 330 328 326 329 324 318 308 302 298 292 286 280 273 264 254 246 245 244 243 242 239 239 240 241 239 236 236 236
339 339 343 349 347 344 336 333 330 330 334 332 333 327 323 323 319 320 318 313 308 300 296 296 294 288 281 276 271 264 256 248 246 246 248 246 244 243 243 240 240 240
333 332 329 330 332 334 332 329 328 326 322 322 321 316 313 311 312 311 309 305 301 295 290 288 290 290 289 283 277 273 269 261 253 252 252 250 249 249 245 245 243 243
328 323 319 317 322 322 320 318 320 322 320 315 312 308 304 305 305 303 300 298 294 293 286 280 276 276 276 279 279 278 273 268 263 259 257 254 254 251 249 245 244 244
324 320 314 313 319 317 313 312 313 314 313 311 309 307 303 301 295 290 293 292 286 283 285 280 272 263 263 265 269 271 273 271 266 262 261 262 259 255 252 251 249 245
323 319 315 315 316 312 315 311 307 307 309 314 313 307 304 305 305 298 288 281 284 281 275 274 267 261 249 251 253 258 264 266 267 266 264 265 264 262 258 253 251 250
317 312 310 310 309 312 313 314 310 306 306 304 303 304 309 309 304 301 299 294 289 283 284 279 268 262 258 252 248 253 257 259 260 261 260 259 260 261 260 257 256 254
309 310 306 299 299 300 305 310 306 300 298 302 306 305 305 307 306 302 299 293 290 287 280 274 276 272 266 268 266 256 253 255 258 258 257 255 255 256 258 259 258 256
301 302 301 298 292 290 294 301 301 295 291 292 294 299 302 302 300 301 301 298 293 286 287 289 285 276 278 277 272 267 263 259 258 255 253 254 253 254 255 256 257 256
289 289 288 288 288 294 296 295 297 291 287 287 290 295 291 291 294 295 293 290 290 294 293 288 282 285 280 276 275 272 270 268 259 256 254 254 254 252 253 254 253 254
279 278 278 278 277 281 288 290 293 295 286 278 282 286 287 290 292 293 291 290 288 286 286 286 283 282 283 276 274 276 276 274 266 262 257 253 253 252 251 252 253 253
273 277 276 275 268 266 277 285 291 291 287 282 284 279 277 278 281 282 287 288 286 283 282 281 281 278 276 277 276 275 278 273 267 264 262 258 256 254 251 250 251 250
280 279 278 276 265 267 275 280 284 287 282 277 288 287 284 282 282 283 281 281 282 281 279 278 278 276 273 271 271 272 274 270 271 269 265 263 260 258 254 251 249 245
281 282 281 278 272 271 277 282 283 283 277 279 281 284 286 284 284 283 281 278 277 278 277 280 280 278 276 272 269 268 261 259 262 264 264 264 266 260 256 254 250 245
291 291 288 287 281 277 283 286 284 281 274 278 276 276 275 281 282 281 281 280 278 276 278 277 276 277 277 275 270 265 259 254 255 255 256 258 262 263 260 254 255 247
295 295 292 290 287 286 288 286 284 281 276 276 276 274 274 276 277 275 279 279 278 279 280 278 278 277 275 272 267 263 255 250 248 250 251 256 255 256 259 258 257 255